Newport, RI

12:47 PM EDT on June 28, 2017 (GMT -0400)
Newport State

Weather History for KUUU - July, 2013

Change the Weather History Date:

Thursday, July 4, 2013

  Actual Average Record
Temperature  
Mean Temperature 76 °F -  
Max Temperature 82 °F 76 °F 93 °F (2002)
Min Temperature 71 °F 61 °F 41 °F (1986)
Cooling Degree Days 11    
Growing Degree Days 26 (Base 50)    
Moisture  
Dew Point 71 °F    
Average Humidity 87    
Maximum Humidity 97    
Minimum Humidity 74    
Precipitation  
Precipitation 0.00 in - - ()
Sea Level Pressure  
Sea Level Pressure 30.20 in    
Wind  
Wind Speed 6 mph (SSW)    
Max Wind Speed 13 mph    
Max Gust Speed 22 mph    
Visibility 8 miles    
Events      
Averages and records for this station are not official NWS values.
T = Trace of Precipitation, MM = Missing Value Source: NWS Daily Summary

Daily Weather History Graph

Daily Weather History Graph

Search for Another Location

Airport or City:

Trip Planner

Search our weather history database for the weather conditions in past years. The results will help you decide how hot, cold, wet, or windy it might be!

Date:

Astronomy

Jul. 04, 2013 Rise Set
Actual Time 5:16 AM EDT 8:22 PM EDT
Civil Twilight 4:42 AM EDT 8:55 PM EDT
Nautical Twilight 3:59 AM EDT 9:38 PM EDT
Astronomical Twilight 3:08 AM EDT 10:29 PM EDT
Moon 2:32 AM EDT (7/4) 5:23 PM EDT (7/4)
Length of Visible Light 16h 12m
Length of Day
15h 05m
Waning Crescent, 11% of the Moon is Illuminated
Jul 4
Waning Crescent
Jul 8
New
Jul 15
First Quarter
Jul 22
Full
Jul 29
Last Quarter

Hourly Weather History & Observations

Time (EDT) Temp. Heat Index Dew Point Humidity Pressure Visibility Wind Dir Wind Speed Gust Speed Precip Events Conditions
12:53 AM 71.1 °F - 70.0 °F 96% 30.21 in 4.0 mi SSW 8.1 mph - N/A   Overcast
1:53 AM 71.1 °F - 70.0 °F 96% 30.21 in 5.0 mi SSW 4.6 mph - N/A   Overcast
2:04 AM 71.6 °F - 69.8 °F 94% 30.21 in 6.0 mi SSW 3.5 mph - N/A   Overcast
2:53 AM 71.1 °F - 70.0 °F 96% 30.20 in 6.0 mi Calm Calm - N/A   Overcast
3:53 AM 72.0 °F - 70.0 °F 93% 30.20 in 7.0 mi Calm Calm - N/A   Overcast
4:53 AM 71.1 °F - 70.0 °F 96% 30.21 in 6.0 mi South 3.5 mph - N/A   Overcast
5:53 AM 72.0 °F - 71.1 °F 97% 30.22 in 5.0 mi Variable 3.5 mph - N/A   Overcast
6:53 AM 73.0 °F - 71.1 °F 93% 30.23 in 6.0 mi SSW 3.5 mph - N/A   Overcast
7:33 AM 75.2 °F - 71.6 °F 89% 30.24 in 8.0 mi SSW 5.8 mph - N/A   Scattered Clouds
7:53 AM 75.0 °F - 72.0 °F 90% 30.24 in 8.0 mi Variable 5.8 mph - N/A   Clear
8:53 AM 77.0 °F - 73.0 °F 88% 30.23 in 10.0 mi Calm Calm - N/A   Clear
9:53 AM 80.1 °F 84.2 °F 73.0 °F 79% 30.23 in 10.0 mi SW 6.9 mph - N/A   Clear
10:53 AM 79.0 °F - 73.0 °F 82% 30.22 in 10.0 mi SSW 8.1 mph - N/A   Clear
11:53 AM 80.1 °F 84.2 °F 73.0 °F 79% 30.21 in 10.0 mi SSW 9.2 mph - N/A   Clear
12:53 PM 80.1 °F 83.8 °F 72.0 °F 76% 30.20 in 10.0 mi SSW 10.4 mph 16.1 mph N/A   Clear
1:53 PM 81.0 °F 85.2 °F 72.0 °F 74% 30.18 in 10.0 mi SSW 10.4 mph 19.6 mph N/A   Clear
2:53 PM 80.1 °F 83.8 °F 72.0 °F 76% 30.17 in 10.0 mi SSW 12.7 mph 21.9 mph N/A   Clear
3:53 PM 81.0 °F 85.8 °F 73.0 °F 77% 30.16 in 10.0 mi SSW 8.1 mph - N/A   Clear
4:53 PM 80.1 °F 83.8 °F 72.0 °F 76% 30.15 in 10.0 mi SSW 9.2 mph 19.6 mph N/A   Clear
5:53 PM 77.0 °F - 71.1 °F 82% 30.15 in 10.0 mi SSW 9.2 mph 19.6 mph N/A   Clear
6:53 PM 75.0 °F - 70.0 °F 84% 30.16 in 10.0 mi SSW 8.1 mph 17.3 mph N/A   Clear
7:53 PM 73.0 °F - 69.1 °F 87% 30.17 in 9.0 mi SSW 5.8 mph - N/A   Clear
8:53 PM 72.0 °F - 69.1 °F 91% 30.17 in 7.0 mi SW 6.9 mph - N/A   Clear
9:53 PM 72.0 °F - 69.1 °F 91% 30.18 in 4.0 mi SSW 8.1 mph - N/A   Clear
10:53 PM 72.0 °F - 69.1 °F 91% 30.17 in 5.0 mi SSW 4.6 mph - N/A   Clear
11:53 PM 72.0 °F - 69.1 °F 91% 30.17 in 7.0 mi Variable 5.8 mph - N/A   Clear